SCATSAT 1 (41790 NORAD) Tracking and Keplerian Element Data

This shows tracking and keplerian element data for the satellite.

Feedback or suggestion? Click here.




ElementValue
Catalog41790
NameSCATSAT 1
Epoch Orbit10545
Epoch Day266.58795642
Epoch Year2018
RAAN312.5406
Inclination98.2501
Eccentricity0.0018915
Argument of Perigee146.252
Mean Anonmoly213.9883
Mean Motion14.50873935
Decay Rate-3.3E-07
L11 41790U 16059H 18266.58795642 -.00000033 00000-0 28777-5 0 9994
L22 41790 98.2501 312.5406 0018915 146.2520 213.9883 14.50873935105457

Live tracking and technical data element details for SCATSAT 1 (NORAD 41790). SCATSAT 1 can be tracked NOW for your location showing map with azimuth and elevation plus other details from your city location.

Track the satellite on the map from your city or location and see movement details for azimuth, elevation, latitude, longitude, range, height, and movement on the map or in text.







IsCatalogInMostPopularTable: catalog: 41790, numindb: 106
Update: records affected: 1



GetName: 41790 SCATSAT 1

Hit Count: updated at: Tue, 25 Sep 2018 14:32:34 GMT